[[{"header":{"parameterUnit":"m.s-1","parameterCategory":1,"la1":30.2991,"la2":30.254,"lo1":-89.0895,"lo2":-89.0444,"dy":0.0017,"dx":0.0017,"nx":28,"ny":28,"refTime":"2024-05-27T03:00:00:Z","depth":0,"parameterNumber":2,"parameterNumberName":"U-component_of_WINDS"},"data":[0,0,0,0,0,0,0,0,0,0,0,0,0,0,0,0,0,0,0,0,0,0,0,0,0,0,0,0,0,0,0,0,0,0,0,0,0,0,0,0,0,0,0,0,0,0,0,0,0,0,0,0,0,0,0,0,0,0,1.0257,1.0259,0,1.045,1.0452,1.0454,1.0502,1.0501,1.0499,1.0498,1.0699,1.0705,1.0711,0,0,0,0,0,0,0,0,0,0,0,0,0,0.9931,0.9937,1.0257,1.0259,1.0261,1.0449,1.0452,1.0455,1.0502,1.0501,1.0499,1.0498,1.0696,1.0704,1.0712,0,0,0,0,0,0,0,0,0,0,0,0,0,1.0093,0.9939,1.0256,1.0308,1.0314,1.0449,1.0452,1.0455,1.0502,1.05,1.0499,1.0497,1.0694,1.0703,1.0713,1.0811,0,0,1.0743,1.0747,0,0,0,0,0,0,0,0,1.0084,1.0105,1.0298,1.0304,1.0312,1.045,1.0411,1.0575,1.0503,1.0431,1.0498,1.0496,1.0617,1.0633,1.0674,1.082,1.0829,1.0744,1.075,1.0754,1.0757,0,0,0,0,0,0,0,1.0073,1.0097,1.0333,1.03,1.0309,1.0322,1.0343,1.0442,1.0533,1.0437,1.0441,1.0463,1.0621,1.0664,1.0679,1.0832,1.0743,1.0752,1.0758,1.0762,1.1068,1.107,0,0,0,0,0,0,1.0052,1.0088,1.0327,1.0339,1.0191,1.0329,1.0353,1.0407,1.0532,1.0549,1.0464,1.0465,1.0649,1.0667,1.0686,1.0809,1.0754,1.0763,1.0768,1.1066,1.1069,1.1071,0,0,0,0,0,0,1.0045,1.0073,1.0319,1.0214,1.0247,1.0337,1.0398,1.0412,1.0456,1.0552,1.0569,1.0492,1.0648,1.0672,1.0779,1.0816,1.0767,1.0776,1.1063,1.1067,1.107,1.1055,0,0,0,0,0,0,1.0036,1.007,1.0108,1.0215,1.0252,1.0408,1.04,1.0417,1.0472,1.0474,1.0582,1.0599,1.0648,1.0764,1.0789,1.0829,1.0784,1.106,1.1065,1.1069,1.1052,1.1057,1.1061,0,0,0,0,0,1.0024,1.0097,1.011,1.0138,1.0301,1.041,1.0432,1.0487,1.0475,1.0514,1.0576,1.0595,1.0808,1.0775,1.0803,1.0846,1.1058,1.1063,1.1068,1.105,1.1056,1.1061,0,0,0,0,0,0,0.9993,1.0112,1.0127,1.0237,1.0313,1.0418,1.0469,1.0491,1.0573,1.0572,1.0637,1.0661,1.0764,1.0816,1.0777,1.0947,1.0933,1.0944,1.091,1.0916,1.092,1.0906,1.0792,0,0,0,0,0,0.9999,1.0077,1.0177,1.0264,1.0301,1.0378,1.0428,1.0464,1.0546,1.0578,1.0648,1.0728,1.0813,1.0867,1.0951,1.106,1.1084,1.1103,1.1108,1.1111,1.112,1.1181,1.1191,1.1088,1.1088,1.1088,0,0,1.0012,1.0086,1.0132,1.026,1.0323,1.0403,1.0405,1.049,1.055,1.0592,1.0696,1.075,1.0844,1.0951,1.1003,1.0998,1.1154,1.1118,1.1119,1.1127,1.1187,1.1197,1.1206,1.1091,1.1091,1.109,0,0,1.0076,1.0141,1.022,1.0283,1.0378,1.0429,1.0448,1.055,1.0587,1.0693,1.0725,1.0798,1.0943,1.1008,1.106,1.1148,1.1169,1.1174,1.1197,1.1256,1.1264,1.1272,1.1303,1.1314,1.1182,1.1182,1.1182,0,1.0081,1.0202,1.0258,1.0341,1.0397,1.0436,1.0517,1.0576,1.0694,1.0732,1.0724,1.0907,1.0972,1.1096,1.1117,1.1158,1.1182,1.1162,1.1258,1.1267,1.1275,1.1305,1.1317,1.1182,1.1182,1.1182,1.1182,0,1.0203,1.0287,1.0339,1.0451,1.0512,1.0594,1.0663,1.0718,1.0748,1.0799,1.0907,1.0987,1.1087,1.1119,1.1149,1.1247,1.1241,1.1245,1.1232,1.1283,1.1313,1.1325,1.1182,1.1182,1.1182,1.1182,0,0,1.0254,1.0395,1.0413,1.0464,1.0572,1.0638,1.0722,1.0819,1.0865,1.0945,1.1017,1.1138,1.1142,1.1201,1.1239,1.1291,1.1355,1.1289,1.1293,1.1299,1.1468,1.1463,1.1476,1.137,1.1372,1.1374,1.146,0,1.0332,1.0481,1.0534,1.0658,1.0736,1.0775,1.0847,1.0922,1.0972,1.1046,1.1102,1.1186,1.1186,1.1222,1.1275,1.1336,1.139,1.1331,1.1438,1.1441,1.1413,1.1492,1.1488,1.1565,1.1472,1.1474,1.1475,0,1.0443,1.0523,1.0654,1.0752,1.0787,1.0851,1.0944,1.1014,1.1099,1.1132,1.1197,1.1231,1.132,1.1301,1.1425,1.1384,1.1431,1.1467,1.1472,1.1484,1.1461,1.1506,1.1591,1.1602,1.1494,1.1493,1.1491,0,1.0466,1.0607,1.0704,1.0747,1.0863,1.0907,1.0958,1.1041,1.1096,1.1177,1.1213,1.1304,1.1354,1.1424,1.1482,1.1463,1.16,1.1586,1.1631,1.1629,1.1658,1.1656,1.1751,1.1688,1.1688,1.1688,1.1687,0,1.0547,1.0626,1.0716,1.0775,1.0865,1.0925,1.1012,1.1065,1.1138,1.1209,1.1249,1.1314,1.1387,1.1462,1.1508,1.1604,1.1626,1.1656,1.1667,1.1652,1.1648,1.1684,1.168,1.1691,1.169,1.169,1.1689,0,1.0589,1.0652,1.076,1.0861,1.0888,1.095,1.1037,1.1096,1.1148,1.1237,1.1261,1.1343,1.1433,1.1498,1.1615,1.1646,1.1749,1.176,1.1719,1.1725,1.1765,1.1761,1.1887,1.1907,1.183,1.1831,1.1832,0,1.0636,1.0698,1.0805,1.0855,1.0905,1.0985,1.1041,1.1102,1.1159,1.126,1.1307,1.14,1.1478,1.1621,1.1691,1.1781,1.1794,1.1833,1.1808,1.1791,1.1795,1.179,1.1797,1.1836,1.1837,1.1837,1.1837,0,1.0714,1.0742,1.0821,1.091,1.0975,1.1049,1.1123,1.1162,1.1237,1.1298,1.1391,1.1451,1.157,1.1662,1.1758,1.1811,1.1837,1.1844,1.1859,1.1845,1.1819,1.1833,1.1729,1.1841,1.1841,1.1841,1.184,1.184,1.076,1.0816,1.09,1.0986,1.1049,1.1117,1.1177,1.1236,1.1314,1.1415,1.1447,1.1543,1.1627,1.1758,1.1813,1.1889,1.1887,1.1909,1.1914,1.1919,1.1918,1.1806,1.1907,1.1907,1.1907,1.1907,1.1907,0,1.0839,1.0895,1.0974,1.1076,1.1144,1.1161,1.1244,1.13,1.1383,1.1459,1.1534,1.1641,1.173,1.1806,1.1899,1.1945,1.1959,1.1967,1.1965,1.1976,1.1914,1.1892,1.1954,1.1954,1.1954,1.1954,1.1954,1.1954,1.0888,1.0984,1.1022,1.1149,1.1205,1.1299,1.1345,1.1408,1.1468,1.1585,1.1659,1.1708,1.1784,1.1883,1.1965,1.1986,1.2018,1.2023,1.2046,1.1986,1.1981,1.1975,1.1955,1.203,1.203,1.2102,1.2103,1.2103]},{"header":{"parameterUnit":"m.s-1","parameterCategory":1,"la1":30.2991,"la2":30.254,"lo1":-89.0895,"lo2":-89.0444,"dy":0.0017,"dx":0.0017,"nx":28,"ny":28,"refTime":"2024-05-27T03:00:00:Z","depth":0,"parameterNumber":3,"parameterNumberName":"V-component_of_WINDS"},"data":[0,0,0,0,0,0,0,0,0,0,0,0,0,0,0,0,0,0,0,0,0,0,0,0,0,0,0,0,0,0,0,0,0,0,0,0,0,0,0,0,0,0,0,0,0,0,0,0,0,0,0,0,0,0,0,0,0,0,3.1589,3.1588,0,3.154,3.154,3.1539,3.1547,3.1547,3.1548,3.1549,3.1491,3.1489,3.1487,0,0,0,0,0,0,0,0,0,0,0,0,0,3.1681,3.1679,3.1589,3.1588,3.1588,3.154,3.154,3.1539,3.1546,3.1547,3.1548,3.1549,3.1492,3.1489,3.1486,0,0,0,0,0,0,0,0,0,0,0,0,0,3.1637,3.1679,3.1589,3.1586,3.1585,3.1541,3.154,3.1539,3.1546,3.1547,3.1549,3.155,3.1493,3.1489,3.1486,3.1439,0,0,3.1475,3.1474,0,0,0,0,0,0,0,0,3.164,3.1634,3.1587,3.1586,3.1585,3.1551,3.1551,3.1505,3.1546,3.1561,3.1549,3.1551,3.1509,3.1505,3.1493,3.1436,3.1434,3.1475,3.1473,3.1471,3.147,0,0,0,0,0,0,0,3.1643,3.1636,3.157,3.1586,3.1585,3.1584,3.158,3.1542,3.1528,3.156,3.156,3.1555,3.1509,3.1496,3.1491,3.1433,3.1475,3.1472,3.147,3.1468,3.1334,3.1333,0,0,0,0,0,0,3.1648,3.1638,3.1571,3.1568,3.1616,3.1582,3.1577,3.1561,3.1529,3.1525,3.1554,3.1555,3.1501,3.1495,3.1489,3.1432,3.1471,3.1468,3.1466,3.1336,3.1334,3.1332,0,0,0,0,0,0,3.165,3.1642,3.1573,3.1603,3.1595,3.1579,3.1561,3.1559,3.1546,3.1524,3.1521,3.1543,3.1502,3.1494,3.1452,3.143,3.1467,3.1463,3.1338,3.1335,3.1333,3.1317,0,0,0,0,0,0,3.1652,3.1642,3.1626,3.1603,3.1593,3.1539,3.156,3.1557,3.1541,3.1542,3.1514,3.151,3.1502,3.1457,3.1448,3.1426,3.1461,3.1339,3.1337,3.1334,3.1319,3.1314,3.131,0,0,0,0,0,3.1656,3.1622,3.1625,3.1617,3.1573,3.1538,3.1532,3.1526,3.1539,3.1521,3.1507,3.1511,3.1434,3.1453,3.1443,3.1419,3.1341,3.1337,3.1334,3.1321,3.1315,3.131,0,0,0,0,0,0,3.164,3.1619,3.1622,3.1581,3.1561,3.1539,3.1517,3.152,3.1494,3.1496,3.1487,3.1481,3.1438,3.1424,3.1445,3.1371,3.1389,3.1383,3.1382,3.1376,3.1372,3.1376,3.1458,0,0,0,0,0,3.1632,3.1608,3.1589,3.1554,3.1544,3.1532,3.1517,3.1514,3.1492,3.1483,3.1466,3.1443,3.1414,3.1394,3.1366,3.1317,3.131,3.1296,3.1291,3.1288,3.1283,3.1255,3.1248,3.1322,3.1322,3.1322,0,0,3.1614,3.16,3.1584,3.1551,3.1535,3.1508,3.1525,3.1495,3.1474,3.1478,3.1438,3.1424,3.1397,3.1352,3.1331,3.1339,3.1261,3.1283,3.1281,3.1278,3.1251,3.1244,3.1238,3.1319,3.132,3.132,0,0,3.1569,3.1556,3.1525,3.151,3.1488,3.148,3.1472,3.145,3.1442,3.1402,3.1404,3.1377,3.1327,3.1308,3.1291,3.1239,3.1241,3.1229,3.1205,3.1179,3.1173,3.1168,3.1149,3.1142,3.1225,3.1225,3.1225,0,3.1549,3.1511,3.1508,3.1479,3.1463,3.1468,3.1436,3.142,3.1388,3.1376,3.1386,3.1323,3.1305,3.1255,3.1243,3.1229,3.1219,3.1233,3.1175,3.1169,3.1164,3.1146,3.1139,3.1224,3.1224,3.1224,3.1224,0,3.1488,3.1461,3.1438,3.1411,3.1392,3.1361,3.1352,3.1333,3.1332,3.1322,3.1281,3.126,3.1227,3.1215,3.1212,3.1164,3.117,3.1177,3.1195,3.1156,3.1139,3.1132,3.1222,3.1222,3.1223,3.1223,0,0,3.1431,3.1403,3.1395,3.1382,3.1358,3.1336,3.1304,3.1275,3.1259,3.1236,3.1208,3.1166,3.1173,3.1154,3.1149,3.1126,3.1085,3.1136,3.1135,3.1127,3.1029,3.1024,3.1016,3.1086,3.1085,3.1084,3.1031,0,3.1383,3.1331,3.1327,3.1278,3.1253,3.1257,3.1229,3.121,3.12,3.1174,3.1162,3.1132,3.1144,3.1133,3.111,3.1095,3.1065,3.1098,3.1058,3.1057,3.1065,3.1007,3.1001,3.0953,3.1025,3.1023,3.1023,0,3.132,3.1299,3.1249,3.1228,3.1217,3.1193,3.1166,3.1142,3.1119,3.1113,3.1093,3.1091,3.1056,3.1075,3.1026,3.1049,3.1032,3.1022,3.102,3.1015,3.1037,3.1,3.0937,3.093,3.1012,3.1013,3.1013,0,3.1283,3.1242,3.1207,3.1195,3.1171,3.1153,3.1141,3.112,3.1103,3.1078,3.1067,3.1037,3.102,3.0996,3.0986,3.1001,3.0936,3.0955,3.0929,3.0929,3.0915,3.0916,3.0848,3.0904,3.0904,3.0905,3.0905,0,3.123,3.1199,3.119,3.1168,3.1133,3.1128,3.1092,3.1081,3.1062,3.1036,3.1037,3.1012,3.1,3.0972,3.0963,3.0923,3.0915,3.0908,3.0906,3.0908,3.0909,3.0897,3.09,3.0903,3.0903,3.0903,3.0904,0,3.1183,3.1176,3.1138,3.1118,3.1112,3.1087,3.1069,3.1046,3.1037,3.1004,3.0996,3.098,3.0948,3.0935,3.0895,3.0889,3.0843,3.0843,3.0851,3.0851,3.0826,3.0828,3.0747,3.0736,3.08,3.0799,3.0799,0,3.115,3.1126,3.1105,3.1089,3.1078,3.1052,3.1035,3.1029,3.101,3.0983,3.0963,3.0932,3.0907,3.0854,3.0837,3.0806,3.0806,3.078,3.0801,3.0804,3.0805,3.0807,3.0804,3.0775,3.0775,3.0774,3.0774,0,3.1091,3.1089,3.1066,3.1042,3.1023,3.1002,3.0982,3.0969,3.0959,3.0938,3.0907,3.0887,3.0847,3.0815,3.0784,3.0768,3.0769,3.0767,3.076,3.0762,3.0768,3.0764,3.0841,3.0769,3.077,3.077,3.077,3.077,3.105,3.1029,3.1012,3.0986,3.0971,3.0952,3.0931,3.092,3.0894,3.0864,3.086,3.0826,3.0803,3.0761,3.0744,3.0716,3.0722,3.0711,3.0708,3.0706,3.0704,3.0772,3.0709,3.071,3.071,3.071,3.071,0,3.0991,3.098,3.0957,3.0931,3.091,3.0915,3.0893,3.0875,3.0846,3.0826,3.0801,3.0765,3.0734,3.0715,3.0683,3.0664,3.0663,3.0656,3.0657,3.0653,3.07,3.071,3.0657,3.0657,3.0657,3.0657,3.0657,3.0657,3.0958,3.0924,3.092,3.0877,3.0866,3.0835,3.0822,3.0804,3.0788,3.0748,3.0724,3.0713,3.0692,3.0659,3.063,3.0625,3.0613,3.0605,3.06,3.0644,3.065,3.0655,3.0664,3.0603,3.0603,3.0556,3.0556,3.0555]}]]